Location: Unspecified
(0.0000°N, 0.0000°E)
Time: 16:49:22
(UTC+00:00)

Vanguard 1 - Pass Details

Date: 17 December 2017
Orbit: 650 x 3833 km, 34.2° (Epoch: 21 July)

Event Time Altitude Azimuth Distance (km) Brightness Sun altitude
Rises 10:02:29 0° 292° (WNW) 7,939 14.4 53.8°
Reaches altitude 10° 10:12:41 10° 313° (NW) 6,592 14.0 55.7°
Maximum altitude 10:22:44 15° 342° (NNW) 5,530 13.7 57.4°
Drops below altitude 10° 10:30:56 10° 13° (NNE) 5,233 13.7 58.8°
Sets 10:37:11 0° 36° (NE) 5,564 13.8 59.8°
